Salt Lake City, UT

5:56 PM MDT on April 29, 2017 (GMT -0600)
Salt Lake City International

Weather History for KSLC - September, 2014

Change the Weather History Date:

Friday, September 5, 2014

  Actual Average Record
Temperature  
Mean Temperature 72 °F 71 °F  
Max Temperature 84 °F 84 °F 97 °F (2013)
Min Temperature 59 °F 57 °F 41 °F (1956)
Degree Days  
Heating Degree Days 0 1  
Month to date heating degree days 0 4  
Since 1 July heating degree days 1 9  
Cooling Degree Days 7 7  
Month to date cooling degree days 29 36  
Year to date cooling degree days 1082 1072  
Growing Degree Days 22 (Base 50)    
Moisture  
Dew Point 42 °F    
Average Humidity 36    
Maximum Humidity 47    
Minimum Humidity 24    
Precipitation  
Precipitation 0.00 in 0.03 in 2.19 in (1970)
Month to date precipitation 0.00 0.15  
Year to date precipitation 9.94 10.66  
Snow  
Snow 0.00 in 0.00 in - ()
Month to date snowfall 0.0 0.0  
Since 1 July snowfall 0.0 0.0  
Snow Depth 0.00 in    
Sea Level Pressure  
Sea Level Pressure 29.95 in    
Wind  
Wind Speed 7 mph (SSW)    
Max Wind Speed 20 mph    
Max Gust Speed 25 mph    
Visibility 10 miles    
Events      
T = Trace of Precipitation, MM = Missing Value Source: NWS Daily Summary

Daily Weather History Graph

Daily Weather History Graph

Search for Another Location

Airport or City:

Trip Planner

Search our weather history database for the weather conditions in past years. The results will help you decide how hot, cold, wet, or windy it might be!

Date:

Astronomy

Sep. 05, 2014 Rise Set
Actual Time 6:58 AM MDT 7:53 PM MDT
Civil Twilight 6:30 AM MDT 8:21 PM MDT
Nautical Twilight 5:57 AM MDT 8:54 PM MDT
Astronomical Twilight 5:23 AM MDT 9:28 PM MDT
Moon 5:26 PM MDT (9/5) 2:55 AM MDT (9/5)
Length of Visible Light 13h 50m
Length of Day
12h 54m
Waxing Gibbous, 84% of the Moon is Illuminated
Sep 5
Waxing Gibbous
Sep 8
Full
Sep 15
Last Quarter
Sep 24
New
Oct 1
First Quarter

Hourly Weather History & Observations

Time (MDT) Temp. Dew Point Humidity Pressure Visibility Wind Dir Wind Speed Gust Speed Precip Events Conditions
12:53 AM 59.0 °F 37.9 °F 46% 29.90 in 10.0 mi ESE 8.1 mph - N/A   Partly Cloudy
1:53 AM 62.1 °F 36.0 °F 38% 29.91 in 10.0 mi Calm Calm - N/A   Scattered Clouds
2:53 AM 60.1 °F 37.0 °F 42% 29.92 in 10.0 mi SW 3.5 mph - N/A   Scattered Clouds
3:53 AM 60.1 °F 37.0 °F 42% 29.95 in 10.0 mi NE 4.6 mph - N/A   Scattered Clouds
4:53 AM 61.0 °F 37.9 °F 42% 29.91 in 10.0 mi WSW 13.8 mph - N/A   Mostly Cloudy
5:53 AM 62.1 °F 35.1 °F 37% 29.91 in 10.0 mi South 6.9 mph - N/A   Scattered Clouds
6:53 AM 60.1 °F 35.1 °F 39% 29.94 in 10.0 mi ESE 9.2 mph - N/A   Scattered Clouds
7:53 AM 63.0 °F 36.0 °F 37% 29.99 in 8.0 mi NE 3.5 mph - N/A   Mostly Cloudy
8:53 AM 66.9 °F 39.9 °F 37% 29.98 in 10.0 mi SSW 6.9 mph - N/A   Mostly Cloudy
9:53 AM 68.0 °F 41.0 °F 37% 30.00 in 10.0 mi SSE 5.8 mph - N/A   Mostly Cloudy
10:53 AM 73.0 °F 41.0 °F 31% 29.99 in 10.0 mi SE 6.9 mph - N/A   Mostly Cloudy
11:53 AM 75.0 °F 43.0 °F 32% 29.98 in 10.0 mi SSE 8.1 mph - N/A   Mostly Cloudy
12:53 PM 79.0 °F 43.0 °F 28% 29.96 in 10.0 mi SSW 11.5 mph - N/A   Mostly Cloudy
1:53 PM 78.1 °F 41.0 °F 27% 29.96 in 10.0 mi West 9.2 mph 17.3 mph N/A   Mostly Cloudy
2:53 PM 81.0 °F 42.1 °F 25% 29.95 in 10.0 mi West 6.9 mph - N/A   Mostly Cloudy
3:53 PM 82.0 °F 43.0 °F 25% 29.94 in 10.0 mi NNW 10.4 mph - N/A   Mostly Cloudy
4:53 PM 80.1 °F 42.1 °F 26% 29.93 in 10.0 mi NNW 11.5 mph - N/A   Mostly Cloudy
5:53 PM 82.0 °F 43.0 °F 25% 29.93 in 10.0 mi NW 6.9 mph - N/A   Mostly Cloudy
6:53 PM 80.1 °F 43.0 °F 27% 29.93 in 10.0 mi NNW 8.1 mph - N/A   Mostly Cloudy
7:53 PM 77.0 °F 45.0 °F 32% 29.93 in 10.0 mi NW 8.1 mph - N/A   Scattered Clouds
8:53 PM 72.0 °F 50.0 °F 46% 29.95 in 10.0 mi West 5.8 mph - N/A   Scattered Clouds
9:53 PM 68.0 °F 52.0 °F 56% 29.99 in 10.0 mi Calm Calm - N/A   Scattered Clouds
10:53 PM 66.0 °F 52.0 °F 60% 29.99 in 10.0 mi South 4.6 mph - N/A   Partly Cloudy
11:53 PM 64.9 °F 50.0 °F 58% 30.00 in 10.0 mi SE 4.6 mph - N/A   Partly Cloudy